This is the latest recevied weather packets stored in our database for station/object OK1JIL-13. If no packets are shown the sender has not sent any weather packets the latest 10 day(s).
| Time | Temp. | Humidity | Pressure | Rain* | Wind** | Luminosity | Snow |
|---|---|---|---|---|---|---|---|
| 1777262582 | 7.22° C | 29% | 1023 hPa | - | - | - | - |
| 1777261982 | 6.11° C | 30% | 1022.9 hPa | - | - | - | - |
| 1777261382 | 5.56° C | 31% | 1023 hPa | - | - | - | - |
| 1777260783 | 6.11° C | 31% | 1023.1 hPa | - | - | - | - |
| 1777260183 | 6.11° C | 30% | 1023 hPa | - | - | - | - |
| 1777259583 | 6.11° C | 31% | 1022.9 hPa | - | - | - | - |
| 1777258983 | 6.11° C | 32% | 1023 hPa | - | - | - | - |
| 1777258383 | 6.11° C | 32% | 1023 hPa | - | - | - | - |
| 1777257783 | 6.11° C | 32% | 1023.1 hPa | - | - | - | - |
| 1777257183 | 6.67° C | 32% | 1023.2 hPa | - | - | - | - |
| 1777256583 | 6.11° C | 34% | 1023.3 hPa | - | - | - | - |
| 1777255983 | 6.11° C | 33% | 1023.2 hPa | - | - | - | - |
| 1777255383 | 6.11° C | 34% | 1023.1 hPa | - | - | - | - |
| 1777254783 | 6.11° C | 34% | 1023.1 hPa | - | - | - | - |
| 1777254183 | 5.56° C | 34% | 1023 hPa | - | - | - | - |
| 1777253583 | 6.11° C | 34% | 1023.1 hPa | - | - | - | - |
| 1777252983 | 6.11° C | 34% | 1023.1 hPa | - | - | - | - |
| 1777252383 | 6.11° C | 34% | 1023.1 hPa | - | - | - | - |
| 1777251783 | 5.56° C | 35% | 1023.1 hPa | - | - | - | - |
| 1777251183 | 5.56° C | 35% | 1023.3 hPa | - | - | - | - |
| 1777250583 | 5.56° C | 35% | 1023.3 hPa | - | - | - | - |
| 1777249983 | 5.56° C | 35% | 1023.3 hPa | - | - | - | - |
| 1777249383 | 5° C | 35% | 1023.4 hPa | - | - | - | - |
| 1777248783 | 6.11° C | 33% | 1023.4 hPa | - | - | - | - |
| 1777248183 | 6.67° C | 32% | 1023.4 hPa | - | - | - | - |
* Rain since midnight (hover to see other rain measurements)
** Current wind speed in m/s (hover to see current wind gust speed)